Flight Briefing for CPX418

Departure Arrival
Theodore Francis Green State Airport (KPVD)
Click to view FAA NOTAMS
Chicago/Rockford International Airport (KRFD)
Click to view FAA NOTAMS
Departure Time Arrival Time
N/A N/A
Aircraft Distance
B757-200SF 790nm
Departure METAR Arrival METAR
KPVD 230651Z AUTO 19006KT 10SM OVC110 11/06 A3026 RMK AO2 SLP248 T01110061 KRFD 230654Z 22004KT 10SM BKN038 OVC100 19/18 A2987 RMK AO2 RAE12 TSE0557 SLP110 P0000 T01890178 $
Suggested Route
BAF HNK NUGNT DJB J60 JOT V171 RFD


View recent IFR Routes data
Notes



Charts and Procedures

Charts for KPVD
No chart available
Charts for KRFD
No chart available

Windy.com Weather Map